Hourly Data Report for October 11, 2019

All times are specified in Local Standard Time (LST). Add 1 hour to adjust for Daylight Saving Time where and when it is observed.

EUREKA CLIMATE
NUNAVUT
Current Station Operator: ECCC - MSC

79°59'21.000" N
85°56'02.000" W
10.00 m
2401199
71613
NEK

Download Data

Hourly Data (October 2019)
Hourly Data Report for October 11, 2019
TIME Temp Definition
°C
Dew Point Definition
°C
Rel Hum Definition
%
Wind Dir Definition
10's deg

Wind Spd Definition
km/h
Visibility Definition
km
Stn Press Definition
kPa
Hmdx Definition


Wind Chill Definition


Weather Definition


00:00 -4.5 -5.3 94 29 17   100.31   -10 LegendNANA
01:00 -4.5 -5.2 95 29 20   100.28   -11 LegendNANA
02:00 -4.4 -4.9 97 29 16   100.25   -10 LegendNANA
03:00 -4.4 -4.7 98 30 17   100.22   -10 LegendNANA
04:00 -4.5 -4.7 98 29 17   100.22   -10 LegendNANA
05:00 -4.3 -4.8 96 29 17   100.19   -10 LegendNANA
06:00 -4.2 -4.7 97 29 13   100.19   -9 LegendNANA
07:00 -4.8 -5.4 95 30 15   100.17   -10 LegendNANA
08:00 -4.0 -4.9 93 30 9   100.13   -8 LegendNANA
09:00 -3.9 -4.9 92 29 14   100.10   -9 LegendNANA
10:00 -3.3 -4.7 90 30 15   100.08   -8 LegendNANA
11:00 -3.7 -4.6 93 29 22   100.07   -10 LegendNANA
12:00 -4.0 -4.4 97 29 24   100.08   -11 LegendNANA
13:00 -3.4 -4.6 91 30 12   100.11   -8 LegendNANA
14:00 -3.7 -4.5 94 28 22   100.15   -10 LegendNANA
15:00 -3.7 -4.4 95 28 25   100.18   -11 LegendNANA
16:00 -4.1 -4.9 94 28 26   100.20   -11 LegendNANA
17:00 -4.4 -5.1 94 28 28   100.26   -12 LegendNANA
18:00 -4.6 -5.5 93 29 28   100.28   -12 LegendNANA
19:00 -4.1 -5.2 92 29 27   100.33   -11 LegendNANA
20:00 -4.7 -5.7 93 28 26   100.36   -12 LegendNANA
21:00 -4.9 -5.6 95 29 33   100.38   -13 LegendNANA
22:00 -5.1 -6.0 94 29 32   100.40   -13 LegendNANA
23:00 -5.1 -5.8 95 29 31   100.42   -13 LegendNANA

Notes on Data Quality.

Legend

  • E = Estimated
  • M = Missing
  • NA = Not Available
Date modified: